This demonstration page uses our WeatherBlox Daily Observations layout. Learn more.

36.19886, -115.1175

Hourly Observations for July 23, 2019

Temp ( °F °C ) Dew Point ( °F °C ) Humidity (%) Winds ( mph kmh ) Pressure ( in mb ) Visibility ( mi km ) Precip ( " mm )
12:53 am 00:53 Clear 95 35 49 9.4 21 21 S 9 15 29.85 1011 10 16.09344 0 0
1:53 am 01:53 Clear 95 35 48 8.9 20 20 SSW 9 15 29.88 1012 10 16.09344 0 0
2:53 am 02:53 Clear 95 35 49 9.4 21 21 S 9 15 29.88 1012 10 16.09344 0 0
3:53 am 03:53 Clear 94 34.4 50 10 22 22 S 12 19 29.91 1013 10 16.09344 0 0
4:53 am 04:53 Clear 93 33.9 50 10 23 23 SW 14 22 29.91 1013 10 16.09344 0 0
5:53 am 05:53 Sunny 92 33.3 51 10.6 25 25 SSW 14 22 29.94 1014 10 16.09344 0 0
6:53 am 06:53 Cloudy 92 33.3 52 11.1 26 26 SW 5 7 29.94 1014 10 16.09344 0 0
7:53 am 07:53 Partly Cloudy 92 33.3 53 11.7 27 27 S 7 11 29.97 1015 10 16.09344 0 0
8:53 am 08:53 Sunny 93 33.9 53 11.7 26 26 S 8 13 30 1016 10 16.09344 0 0
9:53 am 09:53 Sunny 96 35.6 53 11.7 23 23 VRB 6 9 29.97 1015 10 16.09344 0 0
10:53 am 10:53 Partly Cloudy 97 36.1 52 11.1 22 22 SW 7 11 29.97 1015 10 16.09344 0 0
11:53 am 11:53 Sunny 98 36.7 52 11.1 21 21 Calm 29.97 1015 10 16.09344 0 0
12:53 pm 12:53 Sunny 101 38.3 51 10.6 19 19 W 12 19 29.94 1014 10 16.09344 0 0
1:53 pm 13:53 Mostly Sunny 100 37.8 50 10 18 18 SW 13 20 29.91 1013 10 16.09344 0 0
2:53 pm 14:53 Sunny 101 38.3 49 9.4 17 17 W 10 17 29.91 1013 10 16.09344 0 0
3:53 pm 15:53 Sunny 101 38.3 50 10 18 18 Calm 29.88 1012 10 16.09344 0 0
4:53 pm 16:53 Sunny 101 38.3 48 8.9 17 17 W 7 11 29.88 1012 10 16.09344 0 0
5:53 pm 17:53 Sunny 99 37.2 50 10 19 19 SW 5 7 29.88 1012 10 16.09344 0 0
6:53 pm 18:53 Sunny 99 37.2 51 10.6 20 20 S 7 11 29.88 1012 10 16.09344 0 0
7:53 pm 19:53 Sunny 99 37.2 51 10.6 20 20 S 6 9 29.88 1012 10 16.09344 0 0
8:53 pm 20:53 Clear 98 36.7 50 10 20 20 SW 8 13 29.88 1012 10 16.09344 0 0
9:53 pm 21:53 Mostly Clear with Nearby Thunderstorms 97 36.1 52 11.1 22 22 SSW 7 11 29.91 1013 10 16.09344 0 0
10:22 pm 22:22 Clear 96 35.6 53 11.7 23 23 SSW 7 11 29.8 1009 10 16.09344 0 0
10:53 pm 22:53 Clear 96 35.6 53 11.7 23 23 SSW 5 7 29.91 1013 10 16.09344 0 0
11:53 pm 23:53 Clear 92 33.3 52 11.1 26 26 ESE 6 9 29.91 1013 10 16.09344 0 0

Powered by AerisWeather